アトラス彗星

C/2020 R7 ( ATLAS )

English version
Home page
Updated on February 29, 2024

---------------------------------------------------------------------

・ プロフィール

発見日 2020年9月15日
発見光度 19.0等
発見者 Asteroid Terrestrial-Impact Last Alert System (ATLAS) search program

・ 写真集

・ 軌道要素

Epoch 2024 Mar. 31.0 TT = JDT 2460400.5
T 2022 Sept. 16.21167 TT                                Rudenko
q   2.9552278            (2000.0)            P               Q
z  -0.0000558      Peri.  347.82757     +0.05970464     -0.41768815
 +/-0.0000005      Node   268.29755     -0.82280379     -0.53483346
e   1.0001650      Incl.  114.90231     -0.56518075     +0.73449968
>From 1817 observations 2019 Dec. 3-2024 Feb. 17, mean residual 0".7.

・ 星図

・ 光度変化

        m1 = 8.0 + 5 logΔ + 8.0 log r(t + 80)

---------------------------------------------------------------------

軌道要素はM.P.E.C. 2024-D126に掲載されたものです。
星図はステラナビゲータ Ver.10 (アストロアーツ) で作成したものです。
光度グラフはComet for Windowsで作成したものです。

---------------------------------------------------------------------

Copyright(C) Seiichi Yoshida (comet@aerith.net). All rights reserved.